{"data":{"norad_id":67940,"intl_designator":"2026-037J","name":"STARLINK-36907","alt_names":[],"object_type":"PAYLOAD","status":"ACTIVE","operator":null,"country":"US","launch_date":"2026-02-24","launch_site_code":"AFETR","launch_vehicle":null,"mission":null,"orbit_class":"UNKNOWN","rcs_meters":null,"size_class":null,"mass_kg":null,"dimensions":null,"purposes":["comms"],"wikipedia_slug":null,"has_3d_model":false,"image_url":null,"decayed_at":null,"tle_current":{"epoch":"2026-05-25T04:50:56.380416Z","epoch_age_seconds":53514,"freshness":"FRESH","line1":"1 67940U 26037J   26145.20204144  .00014416  00000+0  53225-3 0  9994","line2":"2 67940  43.0021 118.4976 0001221 269.7507  90.3205 15.27588071 15049","mean_motion":15.27588071,"eccentricity":0.0001221,"inclination_deg":43.0021,"raan_deg":118.4976,"arg_perigee_deg":269.7507,"mean_anomaly_deg":90.3205,"bstar":0.00053225,"rev_number":1504,"period_min":94.266250655999,"perigee_km":482.18718079704,"apogee_km":483.86267654002,"semimajor_km":6861.1619286685,"source":"CELESTRAK","updated_at":"2026-05-25T13:38:21.767790Z"}}}